This demonstration page uses our WeatherBlox Daily Observations layout. Learn more.

Left ArrowRight Arrow

40.92945, -100.16068

Hourly Observations for September 25, 2021

Temp ( °F °C ) Dew Point ( °F °C ) Humidity (%) Winds ( mph kmh ) Pressure ( in mb ) Visibility ( mi km ) Precip ( " mm )
12:15 am 00:15 Clear 44 6.6 43 5.9 95 95 N 3 6 30.21 1023 10 16 N/A
12:35 am 00:35 Clear 43 6.2 42 5.4 95 95 N 3 6 30.22 1023 7 11 N/A
12:55 am 00:55 Clear 44 6.4 42 5.6 95 95 N 3 6 30.22 1023 10 16 N/A
1:15 am 01:15 Clear 43 6.2 42 5.5 95 95 N N/A 30.22 1023 10 16 N/A
1:35 am 01:35 Clear 43 6.2 42 5.3 94 94 N N/A 30.22 1023 10 16 N/A
1:55 am 01:55 Clear 43 6.3 42 5.6 95 95 N N/A 30.22 1023 10 16 N/A
2:15 am 02:15 Clear 43 6 41 5 93 93 WNW 3 6 30.22 1023 10 16 N/A
2:35 am 02:35 Clear 42 5.6 41 4.8 95 95 WNW 3 6 30.22 1023 10 16 N/A
2:55 am 02:55 Clear 41 5.1 40 4.4 95 95 N N/A 30.23 1024 10 16 N/A
3:15 am 03:15 Clear 41 5.2 40 4.5 95 95 N N/A 30.23 1024 10 16 N/A
3:35 am 03:35 Clear 41 5.1 40 4.3 95 95 N N/A 30.23 1024 10 16 N/A
3:55 am 03:55 Clear 42 5.7 41 4.9 95 95 WNW 3 6 30.22 1023 10 16 N/A
4:15 am 04:15 Clear 41 5 40 4.2 95 95 N N/A 30.23 1024 10 16 N/A
4:35 am 04:35 Clear 41 5.1 40 4.5 96 96 N N/A 30.23 1024 10 16 N/A
4:55 am 04:55 Clear 42 5.3 40 4.7 96 96 N N/A 30.22 1023 10 16 N/A
5:15 am 05:15 Clear 39 4.1 38 3.6 97 97 N 3 6 30.23 1024 10 16 N/A
5:35 am 05:35 Clear 40 4.4 39 3.9 97 97 N N/A 30.22 1024 10 16 N/A
5:55 am 05:55 Clear 40 4.7 39 4.1 96 96 N N/A 30.22 1023 10 16 N/A
6:15 am 06:15 Clear 40 4.6 39 4 96 96 N N/A 30.22 1023 10 16 N/A
6:35 am 06:35 Clear 40 4.3 39 3.7 96 96 N N/A 30.23 1024 10 16 N/A
6:55 am 06:55 Clear 40 4.6 39 4 96 96 N N/A 30.23 1024 10 16 N/A
7:15 am 07:15 Clear 39 3.9 38 3.4 97 97 N N/A 30.24 1024 10 16 N/A
7:35 am 07:35 Sunny 39 3.9 38 3.4 97 97 N N/A 30.24 1024 10 16 N/A
7:55 am 07:55 Sunny 39 4.1 38 3.4 95 95 N N/A 30.24 1024 10 16 N/A
8:15 am 08:15 Sunny 41 4.9 39 4.1 95 95 N N/A 30.23 1024 10 16 N/A
8:35 am 08:35 Sunny 46 7.6 44 6.4 92 92 N N/A 30.20 1023 10 16 N/A
8:55 am 08:55 Sunny 51 10.4 46 7.9 85 85 N N/A 30.18 1022 10 16 N/A
9:15 am 09:15 Sunny 54 12.2 47 8.2 77 77 SW 6 9 30.15 1021 10 16 N/A
9:35 am 09:35 Sunny 58 14.5 49 9.3 71 71 SW 5 7 30.12 1020 10 16 N/A
9:55 am 09:55 Sunny 62 16.4 48 9 62 62 SW 12 19 30.09 1019 10 16 N/A
10:15 am 10:15 Sunny 64 17.6 48 9 57 57 SW 12 19 30.08 1019 10 16 N/A
10:35 am 10:35 Sunny 66 18.7 48 9 53 53 SSW 14 22 30.06 1018 10 16 N/A
10:55 am 10:55 Sunny 67 19.7 48 8.7 49 49 SSW 20 31 30.04 1017 10 16 N/A
11:15 am 11:15 Sunny 69 20.3 47 8.4 46 46 SW 16 26 30.04 1017 10 16 N/A
11:35 am 11:35 Sunny 70 21.3 47 8.4 44 44 SSW 15 24 30.02 1017 10 16 N/A
11:55 am 11:55 Sunny 72 22.1 46 7.6 39 39 SW 17 28 30.00 1016 10 16 N/A
12:15 pm 12:15 Sunny 73 22.5 45 7.3 38 38 SSW 21 33 29.99 1016 10 16 N/A
12:35 pm 12:35 Sunny 74 23.6 45 7.3 35 35 SSW 16 26 29.97 1015 10 16 N/A
12:55 pm 12:55 Sunny 76 24.3 44 6.9 33 33 SW 20 31 29.96 1014 10 16 N/A
1:15 pm 13:15 Sunny 78 25.6 44 6.8 30 30 SW 20 31 29.93 1014 10 16 N/A
1:35 pm 13:35 Sunny 79 25.9 44 6.8 30 30 SSW 15 24 29.92 1013 10 16 N/A
1:55 pm 13:55 Sunny 79 26.2 44 6.7 29 29 SW 21 33 29.91 1013 10 16 N/A
2:15 pm 14:15 Sunny 81 27.1 45 7 28 28 SSW 17 28 29.89 1012 10 16 N/A
2:35 pm 14:35 Sunny 81 27.4 44 6.6 27 27 SSW 23 37 29.87 1012 10 16 N/A
2:55 pm 14:55 Sunny 82 27.9 44 6.7 26 26 SSW 14 22 29.85 1011 10 16 N/A
3:15 pm 15:15 Sunny 83 28.1 43 6.2 25 25 SW 17 28 29.83 1010 10 16 N/A
3:35 pm 15:35 Sunny 83 28.6 44 6.4 25 25 SSW 18 30 29.82 1010 10 16 N/A
3:55 pm 15:55 Sunny 84 28.8 45 7.1 25 25 SW 15 24 29.82 1010 10 16 N/A
4:15 pm 16:15 Sunny 84 28.7 45 7.1 26 26 SSW 15 24 29.81 1009 10 16 N/A
4:35 pm 16:35 Sunny 84 29 45 7.3 25 25 SW 14 22 29.81 1009 10 16 N/A
4:55 pm 16:55 Sunny 84 29 45 7.4 26 26 SSW 16 26 29.80 1009 7 11 N/A
5:15 pm 17:15 Sunny 84 28.8 45 7.4 26 26 SSW 15 24 29.79 1009 7 11 N/A
5:35 pm 17:35 Sunny 84 28.8 46 7.9 27 27 SW 14 22 29.79 1009 10 16 N/A
5:55 pm 17:55 Sunny 83 28.5 47 8.2 28 28 SSW 12 19 29.78 1009 10 16 N/A
6:15 pm 18:15 Sunny 82 28 47 8.6 30 30 S 12 19 29.78 1008 10 16 N/A
6:55 pm 18:55 Sunny 79 26 48 8.9 34 34 S 8 13 29.78 1009 7 11 N/A
7:15 pm 19:15 Sunny 74 23.4 49 9.4 41 41 S 8 13 29.80 1009 7 11 N/A
7:35 pm 19:35 Hazy 72 22 49 9.2 44 44 S 9 15 29.82 1010 5 8 N/A
7:55 pm 19:55 Clear 68 20 49 9.5 51 51 S 9 15 29.83 1010 7 11 N/A
8:15 pm 20:15 Clear 66 18.7 49 9.5 55 55 S 8 13 29.84 1011 10 16 N/A
8:35 pm 20:35 Clear 67 19.3 49 9.5 53 53 S 9 15 29.84 1010 10 16 N/A
8:55 pm 20:55 Clear 68 19.9 49 9.4 51 51 S 9 15 29.83 1010 10 16 N/A
9:15 pm 21:15 Clear 68 20.1 48 9.1 49 49 S 12 19 29.83 1010 10 16 N/A
9:35 pm 21:35 Clear 68 20.2 48 9 49 49 S 12 19 29.83 1010 10 16 N/A
9:55 pm 21:55 Clear 69 20.3 48 8.7 47 47 S 13 20 29.83 1010 10 16 N/A
10:15 pm 22:15 Clear 69 20.6 48 8.8 47 47 S 10 17 29.83 1010 10 16 N/A
10:35 pm 22:35 Clear 68 20.1 48 8.7 48 48 S 13 20 29.83 1010 10 16 N/A
10:55 pm 22:55 Clear 68 20.1 48 8.7 48 48 S 14 22 29.83 1010 10 16 N/A
11:15 pm 23:15 Clear 68 20 48 9 49 49 S 14 22 29.83 1010 10 16 N/A
11:35 pm 23:35 Clear 67 19.2 48 9.1 52 52 S 13 20 29.84 1010 10 16 N/A
11:55 pm 23:55 Clear 67 19.2 49 9.3 53 53 S 15 24 29.84 1010 10 16 N/A

Powered by AerisWeather